Regional Weather Roundup
Issued by NWS

Home | Current Version | Previous Version | Text Only | Print | Product List | Glossary Off
Versions: 1 2 3 4 5 6 7 8 9 10 11 12 13 14 15 16 17 18 19 20 21 22 23 24 25 26 27 28 29 30 31 32 33 34 35 36 37 38 39 40 41 42 43 44 45 46 47 48 49 50

000
ASUS43 KFSD 190310
RWRSD

WEATHER ROUNDUP FOR SOUTH DAKOTA
NATIONAL WEATHER SERVICE SIOUX FALLS SD
900 PM CST SUN FEB 18 2018

NOTE: "FAIR" INDICATES FEW OR NO CLOUDS BELOW 12,000 FEET WITH NO
SIGNIFICANT WEATHER AND/OR OBSTRUCTIONS TO VISIBILITY.


SDZ001>005-009-010-012>017-190400-
NORTHWEST AND NORTH CENTRAL SOUTH DAKOTA

CITY           SKY/WX    TMP DP  RH WIND       PRES   REMARKS
BUFFALO          N/A      6   1  80 N17       29.86S WCI -13
FAITH            N/A      6   4  91 N18       29.94R WCI -13
MOBRIDGE       LGT SNOW  11   5  77 N18G28    29.95R WCI  -7
$$

SDZ012>016-024>037-041>051-057-063-072>074-190400-
SOUTHWEST AND SOUTH CENTRAL SOUTH DAKOTA

CITY           SKY/WX    TMP DP  RH WIND       PRES   REMARKS
RAPID CTY ARPT LGT SNOW   6   2  83 N20       29.88S VSB 1   WCI -14
PIERRE         LGT SNOW  12   9  87 N22       29.94R FOG     WCI  -7
CUSTER         LGT SNOW   6   1  80 NE5       29.69R VSB 3/4 WCI  -3
ELLSWORTH AFB  MOCLDY     7   5  92 N18       29.89  BLWGSNOWWCI -12
PHILIP         LGT SNOW  11   7  84 N21G26    29.93R FOG     WCI  -8
PINE RIDGE     LGT SNOW  10   5  80 N15       29.85R WCI  -7
SPEARFISH      LGT SNOW   5   1  85 CALM      29.86F
WINNER         CLOUDY    20  14  77 N25G31    29.86R WCI   2
$$

SDZ004>011-016>023-039-040-190400-
NORTHEAST SOUTH DAKOTA

CITY           SKY/WX    TMP DP  RH WIND       PRES   REMARKS
ABERDEEN       CLOUDY    12   5  73 N23G36    29.93R WCI  -7
WATERTOWN      CLOUDY    13  10  88 N25       29.78R WCI  -7
BROOKINGS      CLOUDY    19  15  84 N21G26    29.77R WCI   3
SISSETON         N/A     13   8  81 N22G30    29.88R WCI  -6
$$

SDZ017-020-022-023-036>040-048>070-190400-
SOUTHEAST SOUTH DAKOTA

CITY           SKY/WX    TMP DP  RH WIND       PRES   REMARKS
SIOUX FALLS    MOCLDY    27  21  78 N14       29.73R WCI  16
HURON          CLOUDY    16  10  77 N18       29.90R WCI   0
CHAMBERLAIN    LGT SNOW  19  16  88 NW18G25   29.88R WCI   3
MITCHELL       CLOUDY    21  16  81 N24G31    29.83R WCI   4
YANKTON          N/A     26  22  84 NW23G30   29.72R WCI  11
$$

ABBREVIATIONS USED IN REMARKS
   TC - TEMPERATURE IN CELSIUS
  WCI - WIND CHILL INDEX
   HX - HEAT INDEX
  VSB - VISIBILITY





USA.gov is the U.S. government's official web portal to all federal, state and local government web resources and services.